Flock 4g-9

operational
NORAD ID: 62622 Int'l Des: 2025-009 Owner: PLAN Country: US Constellation: planet
LEOCIRCULARRETROGRADESSO

Flock 4g-9について

説明を読み込み中...

リアルタイム位置

3D地球を読み込み中...

次回通過

高度履歴

Altitude vs Time

uPlot chart will show altitude changes over time

軌道要素

1 62622U 25009P 26063.17055795 .00016135 00000-0 62841-3 0 9990
2 62622 97.4019 145.0272 0004031 350.7800 9.3364 15.26054364 62832
Epoch: Mar 4, 2026 • Age: 20 hours

現在のステータス

高度 495.6 km
速度 7.62 km/s
衛星直下点 54.88°N, 31.43°E
打ち上げ日 Jan 14, 2025
運用期間 1.1 years
タイプ earth observation

技術仕様

分類 Payload
質量 5.70 kg
乾燥質量 5.70 kg
総質量 5.70 kg
長さ 0.30 m
直径 0.10 m
スパン 0.30 m
形状 Box+2 pan
製造者 PLAN
バスタイプ Cubesat 3U
フェーズステータス In Orbit
所有者/国 PLAN/US

大規模コンステレーション

Loading constellations...